{"data":{"norad_id":58323,"epoch":"2026-09-21T22:31:45.738912Z","epoch_age_seconds":117750,"freshness":"FRESH","line1":"1 58323U 23174BV  26264.93872383  .00008508  00000+0  21173-3 0  9998","line2":"2 58323  97.3893 349.6298 0008298 157.9935 202.1670 15.40488861160098","mean_motion":15.40488861,"eccentricity":0.0008298,"inclination_deg":97.3893,"raan_deg":349.6298,"arg_perigee_deg":157.9935,"mean_anomaly_deg":202.167,"bstar":0.00021173,"rev_number":16009,"period_min":93.476820018369,"perigee_km":439.0039358569,"apogee_km":450.32705888153,"semimajor_km":6822.8024973692,"source":"CELESTRAK","updated_at":"2026-09-22T09:00:26.582135Z"}}